| time (UTC) | temp F | wind direction | speed MPH | gust MPH | rain 1hr in | rain 24hr in | rain mn in | humidity % | barometer mb |
| 20260902014625 | 54 | 231 | 2.0 | 8.0 | 0.00 | 0.00 | 0.00 | 60 | 1020.9 |
| 20260902013627 | 54 | 176 | 0.0 | 2.0 | 0.00 | 0.00 | 0.00 | 60 | 1020.8 |
| 20260902012629 | 55 | 135 | 0.0 | 0.0 | 0.00 | 0.00 | 0.00 | 60 | 1020.7 |
| 20260902011632 | 55 | 205 | 0.0 | 4.0 | 0.00 | 0.00 | 0.00 | 59 | 1020.7 |
| 20260902010633 | 55 | 237 | 0.0 | 3.0 | 0.00 | 0.00 | 0.00 | 59 | 1020.6 |
| 20260902005635 | 56 | 192 | 0.0 | 6.0 | 0.00 | 0.00 | 0.00 | 58 | 1020.6 |
| 20260902004637 | 56 | 191 | 0.0 | 5.0 | 0.00 | 0.00 | 0.00 | 58 | 1020.7 |
| 20260902003639 | 56 | 214 | 3.0 | 7.0 | 0.00 | 0.00 | 0.00 | 58 | 1020.7 |
| 20260902002641 | 56 | 222 | 3.0 | 9.0 | 0.00 | 0.00 | 0.00 | 58 | 1020.7 |
| 20260902001643 | 56 | 221 | 3.0 | 7.0 | 0.00 | 0.00 | 0.00 | 58 | 1020.7 |
| 20260902000644 | 56 | 207 | 0.0 | 0.0 | 0.00 | 0.00 | 0.00 | 57 | 1020.8 |
| 20260901235646 | 56 | 190 | 1.0 | 6.0 | 0.00 | 0.00 | 0.00 | 57 | 1020.7 |
| 20260901234648 | 57 | 205 | 2.0 | 6.0 | 0.00 | 0.00 | 0.00 | 57 | 1020.7 |
| 20260901233650 | 57 | 178 | 0.0 | 6.0 | 0.00 | 0.00 | 0.00 | 56 | 1020.7 |
| 20260901232652 | 57 | 205 | 1.0 | 6.0 | 0.00 | 0.00 | 0.00 | 56 | 1020.7 |
| 20260901231654 | 57 | 217 | 2.0 | 7.0 | 0.00 | 0.00 | 0.00 | 56 | 1020.7 |
| 20260901230655 | 57 | 218 | 3.0 | 8.0 | 0.00 | 0.00 | 0.00 | 55 | 1020.8 |
| 20260901225657 | 57 | 210 | 1.0 | 6.0 | 0.00 | 0.00 | 0.00 | 55 | 1020.7 |
| 20260901224658 | 57 | 180 | 1.0 | 6.0 | 0.00 | 0.00 | 0.00 | 55 | 1020.8 |
| 20260901223700 | 58 | 218 | 1.0 | 3.0 | 0.00 | 0.00 | 0.00 | 54 | 1020.8 |
| 20260901222702 | 58 | 198 | 2.0 | 5.0 | 0.00 | 0.00 | 0.00 | 54 | 1020.8 |
| 20260901221704 | 58 | 220 | 2.0 | 6.0 | 0.00 | 0.00 | 0.00 | 54 | 1020.8 |
| 20260901220706 | 57 | 184 | 1.0 | 5.0 | 0.00 | 0.00 | 0.00 | 54 | 1020.8 |
| 20260901215707 | 57 | 160 | 0.0 | 1.0 | 0.00 | 0.00 | 0.00 | 53 | 1020.7 |
| 20260901214709 | 58 | 136 | 0.0 | 0.0 | 0.00 | 0.00 | 0.00 | 53 | 1020.8 |
| 20260901213711 | 58 | 228 | 0.0 | 0.0 | 0.00 | 0.00 | 0.00 | 53 | 1020.6 |
| 20260901212712 | 58 | 135 | 0.0 | 0.0 | 0.00 | 0.00 | 0.00 | 52 | 1020.5 |
| 20260901211713 | 58 | 126 | 0.0 | 0.0 | 0.00 | 0.00 | 0.00 | 52 | 1020.5 |
| 20260901210715 | 58 | 150 | 0.0 | 3.0 | 0.00 | 0.00 | 0.00 | 51 | 1020.4 |
| 20260901205717 | 59 | 152 | 0.0 | 0.0 | 0.00 | 0.00 | 0.00 | 51 | 1020.4 |
| 20260901204719 | 59 | 155 | 0.0 | 2.0 | 0.00 | 0.00 | 0.00 | 50 | 1020.3 |
| 20260901203721 | 59 | 135 | 0.0 | 0.0 | 0.00 | 0.00 | 0.00 | 50 | 1020.4 |
| 20260901202722 | 60 | 136 | 0.0 | 0.0 | 0.00 | 0.00 | 0.00 | 49 | 1020.4 |
| 20260901201724 | 60 | 135 | 0.0 | 0.0 | 0.00 | 0.00 | 0.00 | 49 | 1020.3 |
| 20260901200726 | 61 | 135 | 0.0 | 0.0 | 0.00 | 0.00 | 0.00 | 48 | 1020.4 |
| 20260901195728 | 61 | 135 | 0.0 | 0.0 | 0.00 | 0.00 | 0.00 | 47 | 1020.2 |
| 20260901194730 | 61 | 135 | 0.0 | 0.0 | 0.00 | 0.00 | 0.00 | 47 | 1020.2 |
| 20260901193732 | 62 | 135 | 0.0 | 0.0 | 0.00 | 0.00 | 0.00 | 46 | 1020.3 |
| 20260901192734 | 63 | 135 | 0.0 | 0.0 | 0.00 | 0.00 | 0.00 | 45 | 1020.1 |
| 20260901191735 | 63 | 135 | 0.0 | 0.0 | 0.00 | 0.00 | 0.00 | 45 | 1020.1 |
| 20260901190737 | 64 | 135 | 0.0 | 0.0 | 0.00 | 0.00 | 0.00 | 44 | 1020.0 |
| 20260901185739 | 64 | 135 | 0.0 | 0.0 | 0.00 | 0.00 | 0.00 | 44 | 1019.9 |
| 20260901184741 | 65 | 135 | 0.0 | 0.0 | 0.00 | 0.00 | 0.00 | 43 | 1019.9 |
| 20260901183743 | 65 | 135 | 0.0 | 0.0 | 0.00 | 0.00 | 0.00 | 42 | 1019.8 |
| 20260901182744 | 66 | 135 | 0.0 | 0.0 | 0.00 | 0.00 | 0.00 | 42 | 1019.6 |
| 20260901181747 | 67 | 135 | 0.0 | 0.0 | 0.00 | 0.00 | 0.00 | 41 | 1019.6 |
| 20260901180748 | 68 | 135 | 0.0 | 0.0 | 0.00 | 0.00 | 0.00 | 40 | 1019.4 |
| 20260901175750 | 69 | 140 | 0.0 | 0.0 | 0.00 | 0.00 | 0.00 | 40 | 1019.4 |
| 20260901174752 | 70 | 133 | 0.0 | 0.0 | 0.00 | 0.00 | 0.00 | 39 | 1019.3 |
| 20260901173751 | 70 | 137 | 0.0 | 3.0 | 0.00 | 0.00 | 0.00 | 38 | 1019.3 |
| 20260901172752 | 71 | 150 | 0.0 | 5.0 | 0.00 | 0.00 | 0.00 | 38 | 1019.3 |
| 20260901171754 | 72 | 216 | 1.0 | 8.0 | 0.00 | 0.00 | 0.00 | 37 | 1019.3 |
| 20260901170755 | 73 | 229 | 2.0 | 6.0 | 0.00 | 0.00 | 0.00 | 37 | 1019.2 |
| 20260901165757 | 74 | 233 | 5.0 | 15.0 | 0.00 | 0.00 | 0.00 | 36 | 1019.3 |
| 20260901164759 | 75 | 244 | 3.0 | 16.0 | 0.00 | 0.00 | 0.00 | 35 | 1019.3 |
| 20260901163801 | 76 | 262 | 2.0 | 8.0 | 0.00 | 0.00 | 0.00 | 35 | 1019.3 |
| 20260901162802 | 76 | 249 | 2.0 | 14.0 | 0.00 | 0.00 | 0.00 | 35 | 1019.3 |
| 20260901161804 | 78 | 265 | 6.0 | 11.0 | 0.00 | 0.00 | 0.00 | 34 | 1019.3 |
| 20260901160805 | 79 | 256 | 7.0 | 18.0 | 0.00 | 0.00 | 0.00 | 33 | 1019.3 |
| 20260901155807 | 82 | 256 | 3.0 | 7.0 | 0.00 | 0.00 | 0.00 | 32 | 1019.3 |
| 20260901154809 | 84 | 254 | 5.0 | 11.0 | 0.00 | 0.00 | 0.00 | 31 | 1019.4 |
| 20260901153811 | 88 | 262 | 2.0 | 6.0 | 0.00 | 0.00 | 0.00 | 30 | 1019.5 |
| 20260901152813 | 91 | 331 | 3.0 | 11.0 | 0.00 | 0.00 | 0.00 | 29 | 1019.6 |
| 20260901151814 | 94 | 72 | 2.0 | 6.0 | 0.00 | 0.00 | 0.00 | 27 | 1019.6 |
| 20260901150816 | 92 | 256 | 7.0 | 18.0 | 0.00 | 0.00 | 0.00 | 28 | 1019.7 |
| 20260901145818 | 95 | 284 | 6.0 | 15.0 | 0.00 | 0.00 | 0.00 | 27 | 1019.8 |
| 20260901144817 | 96 | 295 | 6.0 | 13.0 | 0.00 | 0.00 | 0.00 | 27 | 1019.9 |
| 20260901143818 | 95 | 257 | 5.0 | 12.0 | 0.00 | 0.00 | 0.00 | 27 | 1019.8 |
| 20260901142820 | 94 | 302 | 3.0 | 12.0 | 0.00 | 0.00 | 0.00 | 28 | 1019.9 |
| 20260901141818 | 97 | 269 | 8.0 | 21.0 | 0.00 | 0.00 | 0.00 | 26 | 1020.1 |
| 20260901140820 | 104 | 265 | 6.0 | 12.0 | 0.00 | 0.00 | 0.00 | 24 | 1020.2 |
| 20260901135821 | 104 | 261 | 9.0 | 16.0 | 0.00 | 0.00 | 0.00 | 25 | 1020.3 |
| 20260901134823 | 104 | 256 | 5.0 | 12.0 | 0.00 | 0.00 | 0.00 | 25 | 1020.3 |
| 20260901133825 | 102 | 287 | 6.0 | 13.0 | 0.00 | 0.00 | 0.00 | 26 | 1020.4 |
| 20260901132826 | 104 | 257 | 8.0 | 21.0 | 0.00 | 0.00 | 0.00 | 26 | 1020.5 |
| 20260901131828 | 104 | 284 | 9.0 | 21.0 | 0.00 | 0.00 | 0.00 | 26 | 1020.6 |
| 20260901130830 | 103 | 293 | 6.0 | 13.0 | 0.00 | 0.00 | 0.00 | 27 | 1020.6 |
| 20260901125831 | 96 | 319 | 8.0 | 18.0 | 0.00 | 0.00 | 0.00 | 30 | 1020.7 |
| 20260901124833 | 92 | 269 | 5.0 | 20.0 | 0.00 | 0.00 | 0.00 | 32 | 1020.7 |
| 20260901123835 | 93 | 287 | 6.0 | 15.0 | 0.00 | 0.00 | 0.00 | 32 | 1020.8 |
| 20260901122837 | 90 | 295 | 6.0 | 13.0 | 0.00 | 0.00 | 0.00 | 33 | 1020.8 |
| 20260901121839 | 85 | 282 | 8.0 | 18.0 | 0.00 | 0.00 | 0.00 | 36 | 1020.8 |
| 20260901120840 | 86 | 295 | 5.0 | 11.0 | 0.00 | 0.00 | 0.00 | 36 | 1020.8 |
| 20260901115841 | 87 | 291 | 6.0 | 13.0 | 0.00 | 0.00 | 0.00 | 36 | 1020.8 |
| 20260901114843 | 88 | 313 | 3.0 | 9.0 | 0.00 | 0.00 | 0.00 | 36 | 1020.9 |
| 20260901113844 | 90 | 257 | 9.0 | 20.0 | 0.00 | 0.00 | 0.00 | 34 | 1021.0 |
| 20260901112846 | 92 | 310 | 7.0 | 12.0 | 0.00 | 0.00 | 0.00 | 34 | 1021.0 |
| 20260901111848 | 88 | 260 | 4.0 | 10.0 | 0.00 | 0.00 | 0.00 | 37 | 1021.0 |
| 20260901110848 | 86 | 277 | 7.0 | 19.0 | 0.00 | 0.00 | 0.00 | 37 | 1020.9 |
| 20260901105850 | 89 | 265 | 5.0 | 12.0 | 0.00 | 0.00 | 0.00 | 36 | 1021.0 |
| 20260901104852 | 89 | 268 | 8.0 | 23.0 | 0.00 | 0.00 | 0.00 | 36 | 1021.1 |
| 20260901103854 | 87 | 333 | 7.0 | 15.0 | 0.00 | 0.00 | 0.00 | 37 | 1021.0 |
| 20260901102855 | 84 | 269 | 7.0 | 13.0 | 0.00 | 0.00 | 0.00 | 40 | 1021.1 |
| 20260901101857 | 85 | 272 | 7.0 | 15.0 | 0.00 | 0.00 | 0.00 | 39 | 1021.0 |
| 20260901100859 | 85 | 291 | 8.0 | 17.0 | 0.00 | 0.00 | 0.00 | 39 | 1021.0 |
| 20260901095901 | 83 | 302 | 7.0 | 21.0 | 0.00 | 0.00 | 0.00 | 41 | 1020.9 |
| 20260901094903 | 84 | 266 | 9.0 | 21.0 | 0.00 | 0.00 | 0.00 | 41 | 1020.9 |
| 20260901093905 | 85 | 279 | 6.0 | 13.0 | 0.00 | 0.00 | 0.00 | 41 | 1020.8 |
| 20260901092906 | 84 | 267 | 8.0 | 19.0 | 0.00 | 0.00 | 0.00 | 42 | 1020.9 |
| 20260901091908 | 82 | 289 | 5.0 | 13.0 | 0.00 | 0.00 | 0.00 | 43 | 1020.8 |
| 20260901090910 | 83 | 302 | 7.0 | 14.0 | 0.00 | 0.00 | 0.00 | 43 | 1020.9 |
| 20260901085912 | 82 | 308 | 8.0 | 21.0 | 0.00 | 0.00 | 0.00 | 44 | 1020.8 |
| 20260901084914 | 83 | 288 | 9.0 | 24.0 | 0.00 | 0.00 | 0.00 | 44 | 1020.8 |
| 20260901083915 | 84 | 319 | 7.0 | 16.0 | 0.00 | 0.00 | 0.00 | 45 | 1020.7 |
| 20260901082917 | 83 | 303 | 6.0 | 11.0 | 0.00 | 0.00 | 0.00 | 46 | 1020.7 |
| 20260901081918 | 83 | 299 | 7.0 | 17.0 | 0.00 | 0.00 | 0.00 | 46 | 1020.6 |
| 20260901080919 | 85 | 268 | 8.0 | 17.0 | 0.00 | 0.00 | 0.00 | 46 | 1020.4 |
| 20260901074923 | 82 | 272 | 6.0 | 16.0 | 0.00 | 0.00 | 0.00 | 49 | 1020.4 |
| 20260901073925 | 80 | 327 | 10.0 | 18.0 | 0.00 | 0.00 | 0.00 | 51 | 1020.3 |
| 20260901072927 | 78 | 302 | 6.0 | 13.0 | 0.00 | 0.02 | 0.00 | 54 | 1020.1 |
| 20260901071929 | 75 | 296 | 10.0 | 17.0 | 0.00 | 0.04 | 0.00 | 57 | 1020.1 |
| 20260901070931 | 74 | 274 | 8.0 | 20.0 | 0.00 | 0.07 | 0.00 | 58 | 1020.1 |
| 20260901065932 | 72 | 275 | 8.0 | 18.0 | 0.00 | 0.10 | 0.00 | 61 | 1020.2 |
| 20260901064934 | 67 | 251 | 6.0 | 13.0 | 0.00 | 0.18 | 0.00 | 66 | 1020.0 |
| 20260901063936 | 62 | 247 | 8.0 | 18.0 | 0.00 | 0.24 | 0.00 | 70 | 1019.9 |
| 20260901062938 | 61 | 255 | 6.0 | 23.0 | 0.00 | 0.44 | 0.00 | 70 | 1020.0 |
| 20260901061940 | 61 | 264 | 7.0 | 17.0 | 0.00 | 0.59 | 0.00 | 70 | 1019.8 |
| 20260901060941 | 61 | 282 | 7.0 | 17.0 | 0.00 | 0.64 | 0.00 | 70 | 1019.9 |
| 20260901055943 | 60 | 281 | 7.0 | 14.0 | 0.00 | 0.64 | 0.00 | 70 | 1019.8 |
| 20260901054945 | 60 | 260 | 7.0 | 21.0 | 0.00 | 0.64 | 0.00 | 70 | 1019.8 |
| 20260901053947 | 59 | 254 | 6.0 | 13.0 | 0.00 | 0.64 | 0.00 | 70 | 1019.7 |
| 20260901052949 | 59 | 252 | 4.0 | 11.0 | 0.00 | 0.64 | 0.00 | 70 | 1019.7 |
| 20260901051951 | 58 | 257 | 4.0 | 8.0 | 0.00 | 0.64 | 0.00 | 69 | 1019.6 |
| 20260901050953 | 58 | 227 | 3.0 | 11.0 | 0.00 | 0.64 | 0.00 | 69 | 1019.5 |
| 20260901045955 | 58 | 228 | 3.0 | 8.0 | 0.00 | 0.64 | 0.00 | 69 | 1019.5 |
| 20260901044956 | 59 | 200 | 0.0 | 3.0 | 0.00 | 0.64 | 0.00 | 68 | 1019.3 |
| 20260901043958 | 59 | 223 | 4.0 | 9.0 | 0.00 | 0.64 | 0.00 | 69 | 1019.2 |
| 20260901043000 | 59 | 234 | 4.0 | 10.0 | 0.00 | 0.64 | 0.00 | 68 | 1019.1 |
| 20260901042002 | 60 | 255 | 5.0 | 19.0 | 0.00 | 0.64 | 0.00 | 69 | 1019.0 |
| 20260901041004 | 60 | 257 | 7.0 | 13.0 | 0.00 | 0.64 | 0.00 | 68 | 1018.9 |
| 20260901040005 | 60 | 277 | 7.0 | 22.0 | 0.00 | 0.64 | 0.00 | 68 | 1018.9 |
| 20260901035007 | 60 | 272 | 10.0 | 24.0 | 0.00 | 0.64 | 0.00 | 68 | 1018.7 |
| 20260901034009 | 60 | 259 | 10.0 | 22.0 | 0.00 | 0.64 | 0.00 | 68 | 1018.8 |
| 20260901033011 | 60 | 258 | 10.0 | 18.0 | 0.00 | 0.64 | 0.00 | 67 | 1018.8 |
| 20260901032013 | 60 | 279 | 11.0 | 27.0 | 0.00 | 0.64 | 0.00 | 67 | 1018.6 |
| 20260901031015 | 60 | 259 | 9.0 | 18.0 | 0.00 | 0.64 | 0.00 | 66 | 1018.5 |
| 20260901030017 | 60 | 272 | 8.0 | 14.0 | 0.00 | 0.64 | 0.00 | 66 | 1018.7 |
| 20260901025019 | 60 | 277 | 7.0 | 15.0 | 0.00 | 0.64 | 0.00 | 65 | 1018.6 |
| 20260901024020 | 60 | 254 | 4.0 | 11.0 | 0.00 | 0.64 | 0.00 | 64 | 1018.6 |
| 20260901023022 | 61 | 249 | 6.0 | 16.0 | 0.00 | 0.64 | 0.00 | 64 | 1018.6 |
| 20260901022024 | 61 | 262 | 7.0 | 16.0 | 0.00 | 0.64 | 0.00 | 63 | 1018.4 |
| 20260901021026 | 61 | 252 | 7.0 | 13.0 | 0.00 | 0.64 | 0.00 | 63 | 1018.3 |
| 20260901020028 | 62 | 270 | 8.0 | 16.0 | 0.00 | 0.64 | 0.00 | 62 | 1018.2 |
| 20260901015030 | 62 | 270 | 3.0 | 9.0 | 0.00 | 0.64 | 0.00 | 62 | 1018.3 |